Regional Weather Roundup
Issued by NWS

Home | Current Version | Previous Version | Graphics & Text | Print | Product List | Glossary On
Versions: 1 2 3 4 5 6 7 8 9 10 11 12 13 14 15 16 17 18 19 20 21 22 23 24 25 26 27 28 29 30 31 32 33 34 35 36 37 38 39 40 41 42 43 44 45 46 47 48 49 50
751
ASUS45 KCYS 291710
RWRWY

WYOMING REGIONAL WEATHER ROUNDUP
NATIONAL WEATHER SERVICE CHEYENNE WY
1100 AM MDT MON AUG 29 2016

NOTE:  "FAIR" INDICATES FEW OR NO CLOUDS BELOW 12,000 FEET
WITH NO SIGNIFICANT WEATHER AND/OR OBSTRUCTIONS TO VISIBILITY.

WYZ001-291800-
YELLOWSTONE NATIONAL PARK

CITY           SKY/WX    TMP DP  RH WIND       PRES   REMARKS
LK YELLOWSTONE   N/A     60  43  53 E3        30.52F
W YELLOWSTONE  NOT AVBL

$$
WYZ002>013-054>058-071-098>099-291800-
NORTHERN WYOMING

CITY           SKY/WX    TMP DP  RH WIND       PRES   REMARKS
JACKSON        SUNNY     64  34  32 CALM      30.44F
CODY           FAIR      68  46  45 CALM      30.36F
GREYBULL       FAIR      72  44  36 SW3       30.30S
WORLAND        FAIR      72  43  35 VRB3      30.32S
SHERIDAN       FAIR      76  46  34 CALM      30.31S
BUFFALO        FAIR      76  41  28 N8        30.37R
GILLETTE       FAIR      73  50  44 N5        30.31R
HULETT         FAIR      73  46  38 E16G23    30.33S
NEWCASTLE      FAIR      77  39  25 SE8       30.29S

$$
WYZ014>020-022>026-101>103-291800-
CENTRAL WYOMING

CITY           SKY/WX    TMP DP  RH WIND       PRES   REMARKS
BIG PINEY      FAIR      72  31  22 SE6       30.46R
PINEDALE       FAIR      72  27  18 S3        30.46S
DUBOIS         FAIR      70  28  21 E8        30.46F
LANDER         FAIR      76  38  25 VRB5      30.37R
RIVERTON       FAIR      73  36  25 CALM      30.38R
CASPER         FAIR      73  41  31 CALM      30.36S
DOUGLAS        FAIR      78  39  24 NW9       30.33R

$$
WYZ021-027>030-104>119-291800-
SOUTHERN WYOMING

CITY           SKY/WX    TMP DP  RH WIND       PRES   REMARKS
EVANSTON       FAIR      74  28  18 VRB3      30.44F
FORT BRIDGER   FAIR      73  28  18 NE6       30.47S
ROCK SPRINGS   FAIR      70  29  21 E6        30.43S
DIXON          FAIR      71  38  29 SW6       30.41S
RAWLINS        FAIR      72  31  22 VRB7      30.43S
SARATOGA       FAIR      68  36  30 NW7       30.44S
LARAMIE        FAIR      66  38  35 VRB3      30.44S
CHEYENNE       FAIR      77  39  25 E10       30.37R
TORRINGTON     FAIR      81  47  30 CALM      30.26S
PINE BLUFFS    FAIR      75  43  31 E6        30.32S

$$




USA.gov is the U.S. government's official web portal to all federal, state and local government web resources and services.